Date,TemperatureHighF,TemperatureAvgF,TemperatureLowF,DewpointHighF,DewpointAvgF,DewpointLowF,HumidityHigh,HumidityAvg,HumidityLow,PressureMaxIn,PressureMinIn,WindSpeedMaxMPH,WindSpeedAvgMPH,GustSpeedMaxMPH,PrecipitationSumIn
2013-6-1,88,78,73,79,76,73,99,92,73,30.03,29.96,11,2,11,1.87
2013-6-2,91,80,71,81,75,34,99,86,63,30.00,29.92,11,2,11,0.00
2013-6-3,89,80,72,78,75,71,99,86,69,30.03,29.91,10,2,10,0.09
2013-6-4,86,80,73,78,76,73,99,89,73,30.05,29.95,7,1,7,0.03
2013-6-5,86,82,79,80,77,75,91,87,78,30.02,29.90,9,3,9,0.04
2013-6-6,81,80,76,79,78,74,99,94,88,29.91,29.80,13,7,14,0.88
2013-6-7,92,78,74,80,75,73,99,91,64,29.98,29.83,12,3,12,0.71
2013-6-8,89,79,73,82,77,73,99,93,78,30.10,29.96,9,2,9,0.59
2013-6-9,91,84,79,79,77,75,92,79,66,30.12,30.04,10,6,12,0.00
2013-6-10,94,85,80,80,78,76,89,79,64,30.09,30.01,13,5,13,0.00
2013-6-11,93,84,80,80,78,75,92,82,62,30.09,29.35,11,4,11,0.00
2013-6-12,95,82,76,81,77,75,99,86,62,30.08,30.02,7,1,10,0.00
2013-6-13,93,82,74,80,75,71,99,82,61,30.05,29.94,10,2,10,0.00
2013-6-14,98,83,75,78,74,71,99,77,47,29.97,29.88,11,3,11,0.00
2013-6-15,94,84,74,78,76,73,99,77,58,30.05,29.92,9,3,9,0.00
2013-6-16,95,85,74,80,77,73,99,78,59,30.09,30.02,11,3,11,0.00
2013-6-17,95,86,77,80,77,74,92,75,59,30.08,30.01,13,4,13,0.00
2013-6-18,94,86,78,78,77,74,92,75,59,30.07,29.99,13,4,13,0.00
2013-6-19,94,85,76,81,77,74,99,79,61,30.05,29.99,12,3,12,0.01
2013-6-20,94,84,74,78,75,69,89,75,57,30.09,30.02,13,3,13,0.00
2013-6-21,95,86,79,77,75,74,86,71,56,30.13,30.03,13,5,13,0.00
2013-6-22,95,86,79,77,75,73,85,70,53,30.11,30.04,10,5,10,0.00
2013-6-23,93,85,80,79,75,71,85,74,59,30.22,30.05,13,6,13,0.05
2013-6-24,95,86,80,78,75,72,81,70,55,30.17,30.08,13,6,13,0.00
2013-6-25,94,85,78,80,76,72,94,77,60,30.13,30.05,13,6,13,0.06
2013-6-26,94,85,79,78,76,73,89,75,56,30.08,30.01,13,5,13,0.03
2013-6-27,93,83,77,80,76,73,94,80,61,30.06,29.95,10,2,10,0.30
2013-6-28,93,82,74,78,75,71,99,81,55,29.99,29.86,13,3,13,0.33
2013-6-29,93,81,74,79,76,73,99,86,62,29.93,29.81,14,3,14,0.08
2013-6-30,92,81,75,79,76,72,98,85,60,29.94,29.84,14,4,14,0.35